Location: Unspecified
(0.0000°N, 0.0000°E)
Time: 15:18:14
(UTC+00:00)

Transit 2A - Visible Passes

Search period start: 22 September 2017 00:00
Search period end: 02 October 2017 00:00
Orbit: 593 x 966 km, 66.7° (Epoch: 21 September)

Date Brightness Start Highest point End Pass type
(mag) Time Alt. Az. Time Alt. Az. Time Alt. Az.
24 Sep 8.1 20:12:26 10° NNW 20:14:46 24° NNW 20:14:46 24° NNW visible
25 Sep 6.7 19:38:30 10° NNW 19:43:16 50° NNE 19:43:16 50° NNE visible
26 Sep 6.7 19:04:51 10° N 19:10:43 41° ENE 19:12:08 36° ESE visible
26 Sep 8.8 20:49:49 10° WNW 20:52:47 17° W 20:52:47 17° W visible
27 Sep 7.3 18:31:34 10° NNE 18:36:40 26° ENE 18:41:31 10° ESE visible
27 Sep 8.1 20:14:31 10° NW 20:19:40 27° WSW 20:22:13 20° SW visible
28 Sep 7.4 19:39:50 10° NW 19:45:43 44° WSW 19:51:14 10° S visible
29 Sep 6.6 19:05:31 10° NNW 19:11:44 71° WSW 19:17:33 10° SSE visible
30 Sep 6.3 18:31:30 10° NNW 18:37:46 74° ENE 18:43:34 10° SSE visible
01 Oct 9.1 19:43:22 10° WNW 19:46:37 15° WSW 19:49:47 10° SW visible
